Regional Weather Roundup
Issued by NWS

Home | Current Version | Previous Version | Graphics & Text | Print | Product List | Glossary On
Versions: 1 2 3 4 5 6 7 8 9 10 11 12 13 14 15 16 17 18 19 20 21 22 23 24 25 26 27 28 29 30 31 32 33 34 35 36 37 38 39 40 41 42 43 44 45 46 47 48 49 50
000
ASUS45 KCYS 160910
RWRWY

WYOMING REGIONAL WEATHER ROUNDUP
NATIONAL WEATHER SERVICE CHEYENNE WY
200 AM MST TUE JAN 16 2018

NOTE:  "FAIR" INDICATES FEW OR NO CLOUDS BELOW 12,000 FEET
WITH NO SIGNIFICANT WEATHER AND/OR OBSTRUCTIONS TO VISIBILITY.

WYZ001-161000-
YELLOWSTONE NATIONAL PARK

CITY           SKY/WX    TMP DP  RH WIND       PRES   REMARKS
LK YELLOWSTONE   N/A     -7 -11  83 CALM      30.37F
W YELLOWSTONE  NOT AVBL

$$
WYZ002>013-054>058-071-098>099-161000-
NORTHERN WYOMING

CITY           SKY/WX    TMP DP  RH WIND       PRES   REMARKS
JACKSON        FAIR       0  -3  87 CALM      30.42S
CODY           FAIR       9   6  88 VRB3      30.40F
GREYBULL       FAIR      -6 -11  79 CALM      30.51F
WORLAND        FAIR      -4  -7  87 S5        30.48F WCI -15
SHERIDAN       FAIR     -11 -15  82 CALM      30.44F
BUFFALO        FAIR      11  -7  44 S6        30.38F WCI   1
GILLETTE       FAIR       0  -8  69 SE8       30.47F WCI -14
HULETT         FAIR      -9 -15  77 MISG      30.50S
NEWCASTLE      FAIR     -11 -18  70 CALM      30.56F

$$
WYZ014>020-022>026-101>103-161000-
CENTRAL WYOMING

CITY           SKY/WX    TMP DP  RH WIND       PRES   REMARKS
BIG PINEY      CLOUDY    22  16  78 S3        30.41F
PINEDALE       CLOUDY    19  14  79 CALM      30.41F
DUBOIS         FAIR       9   5  85 NW9       30.36R WCI  -5
LANDER         CLOUDY    17  11  77 SW6       30.43S WCI   9
RIVERTON       CLOUDY    16   9  74 CALM      30.44F
CASPER         FAIR       7   0  73 W10       30.45F WCI  -8
DOUGLAS        FAIR      -4 -10  75 CALM      30.49F

$$
WYZ021-027>030-104>119-161000-
SOUTHERN WYOMING

CITY           SKY/WX    TMP DP  RH WIND       PRES   REMARKS
EVANSTON       FAIR      18  13  80 E12       30.34F WCI   5
FORT BRIDGER   FAIR      15  14  97 CALM      30.42S
ROCK SPRINGS   FAIR      12   4  70 CALM      30.42S
DIXON            N/A      6  -3  65 E3        30.46S
RAWLINS        FAIR       0  -6  76 CALM      30.42S
SARATOGA       FAIR       5  -6  61 SW3       30.43R
LARAMIE        FAIR      -8 -12  83 SW5       30.38R WCI -19
CHEYENNE       FAIR      -2  -7  79 W9        30.41F WCI -18
TORRINGTON     FAIR      -4  -8  83 CALM      30.56S

$$



USA.gov is the U.S. government's official web portal to all federal, state and local government web resources and services.